CW0774 Weather Reports


time (UTC)temp
C
wind
direction
speed
KPH
gust
KPH
rain 1hr
cm
rain 24hr
cm
rain mn
cm
humidity
%
barometer
mb
20260507115414 8 4 0.0 0.0 0.00 0.00 0.00 100 1011.8
20260507114915 8 4 0.0 0.0 0.00 0.00 0.00 100 1012.0
20260507114413 8 4 0.0 0.0 0.00 0.00 0.00 100 1012.0
20260507113914 8 4 0.0 0.0 0.00 0.00 0.00 100 1012.0
20260507113414 8 4 0.0 0.0 0.00 0.00 0.00 100 1012.2
20260507112914 8 4 0.0 0.0 0.00 0.00 0.00 100 1012.2
20260507112414 8 4 0.0 0.0 0.00 0.00 0.00 100 1012.1
20260507111914 8 4 0.0 0.0 0.00 0.00 0.00 100 1012.1
20260507111414 8 4 0.0 0.0 0.00 0.00 0.00 100 1012.3
20260507110914 8 4 0.0 0.0 0.00 0.00 0.00 100 1012.4
20260507110414 8 4 0.0 0.0 0.00 0.00 0.00 100 1012.2
20260507105914 8 4 0.0 0.0 0.00 0.00 0.00 100 1012.1
20260507105414 8 4 0.0 0.0 0.00 0.00 0.00 100 1012.6
20260507104914 8 4 0.0 0.0 0.00 0.00 0.00 100 1013.0
20260507104414 8 4 0.0 0.0 0.00 0.00 0.00 100 1012.3
20260507103915 8 4 0.0 0.0 0.00 0.00 0.00 100 1012.2
20260507103414 8 4 0.0 0.0 0.00 0.00 0.00 100 1012.7
20260507102913 8 4 0.0 0.0 0.00 0.00 0.00 100 1012.6
20260507102414 8 4 0.0 0.0 0.00 0.00 0.00 100 1012.1
20260507101914 8 4 0.0 0.0 0.00 0.00 0.00 100 1012.2
20260507101414 8 4 0.0 0.0 0.00 0.00 0.00 100 1012.2
20260507100914 8 4 0.0 0.0 0.00 0.00 0.00 100 1012.1
20260507100414 8 4 0.0 0.0 0.00 0.00 0.00 100 1012.3
20260507095914 8 4 0.0 0.0 0.00 0.00 0.00 100 1011.8
20260507095414 8 4 0.0 0.0 0.00 0.00 0.00 100 1011.4
20260507094914 8 4 0.0 0.0 0.00 0.00 0.00 100 1011.5
20260507094414 8 4 0.0 0.0 0.00 0.00 0.00 100 1011.9
20260507093414 8 4 0.0 0.0 0.00 0.00 0.00 100 1011.5
20260507092914 8 4 0.0 0.0 0.00 0.00 0.00 100 1011.2
20260507091914 8 4 0.0 0.0 0.00 0.00 0.00 100 1011.6
20260507091414 8 4 0.0 4.8 0.00 0.00 0.00 100 1011.8
20260507090914 8 4 0.0 4.8 0.00 0.00 0.00 100 1011.5
20260507090414 8 24 0.0 4.8 0.00 0.00 0.00 100 1011.5
20260507085915 8 24 0.0 4.8 0.00 0.00 0.00 100 1011.5
20260507085414 8 23 0.0 4.8 0.00 0.00 0.00 100 1011.7
20260507084414 9 8 0.0 8.0 0.00 0.00 0.00 100 1011.5
20260507083914 9 3 0.0 11.3 0.00 0.00 0.00 100 1011.4
20260507083415 9 8 3.2 11.3 0.00 0.00 0.00 100 1011.1
20260507082914 9 6 0.0 9.7 0.00 0.00 0.00 100 1011.0
20260507081914 9 18 1.6 8.0 0.00 0.00 0.00 100 1011.5
20260507081414 9 16 0.0 4.8 0.00 0.00 0.00 100 1011.6
20260507080916 9 16 0.0 8.0 0.00 0.00 0.00 100 1011.5
20260507080415 9 15 1.6 8.0 0.00 0.00 0.00 100 1011.0
20260507075914 9 13 0.0 8.0 0.00 0.00 0.00 100 1011.2
20260507075414 9 9 3.2 9.7 0.00 0.00 0.00 100 1011.0
20260507074914 9 12 3.2 9.7 0.00 0.00 0.00 100 1011.2
20260507073914 10 15 3.2 8.0 0.00 0.00 0.00 100 1011.2
20260507073414 10 11 0.0 8.0 0.00 0.00 0.00 100 1010.9
20260507072915 10 10 0.0 8.0 0.00 0.00 0.00 100 1010.8
20260507072414 10 11 3.2 8.0 0.00 0.00 0.00 100 1011.0
20260507071414 10 14 0.0 0.0 0.00 0.00 0.00 100 1010.6
20260507070414 10 14 0.0 0.0 0.00 0.00 0.00 100 1010.8
20260507065914 10 14 0.0 0.0 0.00 0.00 0.00 100 1010.6
20260507065414 10 14 0.0 0.0 0.00 0.00 0.00 100 1010.2
20260507064914 10 14 0.0 0.0 0.00 0.00 0.00 100 1010.2
20260507064414 10 14 0.0 0.0 0.00 0.00 0.00 100 1010.3
20260507063413 10 14 0.0 0.0 0.00 0.00 0.00 100 1010.2
20260507062915 10 14 0.0 0.0 0.00 0.00 0.00 100 1010.1
20260507062414 10 14 0.0 0.0 0.00 0.00 0.00 100 1010.1
20260507061415 10 14 0.0 0.0 0.00 0.00 0.00 100 1010.2
20260507055914 10 14 0.0 9.7 0.00 0.00 0.00 100 1009.7
20260507055415 10 30 1.6 9.7 0.00 0.00 0.00 100 1010.1
20260507054914 10 17 3.2 9.7 0.00 0.00 0.00 100 1010.2
20260507054416 11 18 1.6 9.7 0.00 0.00 0.00 100 1010.1
20260507053914 11 7 0.0 4.8 0.00 0.00 0.00 100 1010.0
20260507053414 11 14 0.0 0.0 0.00 0.00 0.00 100 1009.9
20260507052914 11 14 0.0 11.3 0.00 0.00 0.00 100 1010.0
20260507052415 11 14 0.0 11.3 0.00 0.00 0.00 100 1009.9
20260507051914 11 20 1.6 11.3 0.00 0.00 0.00 100 1010.0
20260507051414 11 11 1.6 11.3 0.00 0.00 0.00 100 1010.0
20260507045914 11 29 4.8 14.5 0.00 0.00 0.00 100 1009.6
20260507045415 11 13 1.6 8.0 0.00 0.00 0.00 100 1009.6
20260507044914 10 134 0.0 3.2 0.00 0.00 0.00 100 1009.8
20260507044414 10 134 0.0 0.0 0.00 0.00 0.00 100 1009.8
20260507043914 10 134 0.0 0.0 0.00 0.00 0.00 100 1010.0
20260507043414 10 134 0.0 11.3 0.00 0.00 0.00 100 1010.1
20260507042915 10 134 1.6 11.3 0.00 0.00 0.00 100 1010.1
20260507042414 10 124 1.6 11.3 0.00 0.00 0.00 100 1010.1
20260507041914 10 164 0.0 8.0 0.00 0.00 0.00 100 1009.9
20260507040914 10 178 1.6 8.0 0.00 0.00 0.00 100 1009.1
20260507040415 10 186 0.0 3.2 0.00 0.00 0.00 100 1009.2
20260507035914 10 186 0.0 8.0 0.00 0.00 0.00 100 1009.2
20260507035414 10 179 0.0 9.7 0.00 0.00 0.00 100 1009.1
20260507034914 10 213 1.6 9.7 0.00 0.00 0.00 100 1009.2
20260507033915 10 133 0.0 11.3 0.00 0.00 0.00 100 1009.2
20260507033414 10 182 1.6 12.9 0.00 0.00 0.00 100 1009.3
20260507032914 10 150 3.2 16.1 0.00 0.00 0.00 100 1009.3
20260507032414 10 136 1.6 16.1 0.00 0.00 0.00 100 1009.4
20260507031914 10 157 1.6 16.1 0.00 0.00 0.00 100 1009.2
20260507031414 10 167 1.6 14.5 0.00 0.00 0.00 100 1009.4
20260507030914 10 185 4.8 14.5 0.00 0.00 0.00 100 1009.2
20260507025914 10 194 0.0 20.9 0.00 0.00 0.00 100 1009.4
20260507025414 10 224 0.0 20.9 0.00 0.00 0.00 100 1009.4
20260507024914 10 147 3.2 20.9 0.00 0.00 0.00 100 1009.5
20260507022915 10 78 0.0 9.7 0.00 0.00 0.00 100 1009.7
20260507022415 10 78 0.0 9.7 0.00 0.00 0.00 100 1009.7
20260507021914 10 148 0.0 19.3 0.00 0.00 0.00 100 1009.8
20260507020414 10 178 0.0 9.7 0.00 0.00 0.00 100 1009.8
20260507015914 10 193 1.6 19.3 0.00 0.00 0.00 100 1010.0
20260507015414 10 195 0.0 19.3 0.00 0.00 0.00 100 1010.0
20260507014915 10 161 0.0 16.1 0.00 0.00 0.00 100 1010.0
20260507014414 10 193 1.6 16.1 0.00 0.00 0.00 100 1010.1
20260507013414 10 152 3.2 22.5 0.00 0.00 0.00 100 1010.1
20260507012915 10 137 4.8 22.5 0.00 0.00 0.00 100 1010.2
20260507012414 11 144 1.6 22.5 0.00 0.00 0.00 100 1010.2
20260507011914 11 163 1.6 22.5 0.00 0.00 0.00 100 1010.2
20260507011415 11 172 1.6 19.3 0.00 0.00 0.00 100 1010.2
20260507010414 11 267 3.2 24.1 0.00 0.00 0.00 100 1010.2
20260507005915 11 88 1.6 24.1 0.00 0.00 0.00 100 1010.2
20260507005414 11 192 4.8 19.3 0.00 0.00 0.00 100 1010.3
20260507004914 11 167 1.6 20.9 0.00 0.00 0.00 100 1010.3
20260507004414 11 176 1.6 20.9 0.00 0.00 0.00 100 1010.3
20260507003915 11 158 1.6 19.3 0.00 0.00 0.00 100 1010.4
20260507003414 11 185 0.0 16.1 0.00 0.00 0.00 100 1010.4
20260507002914 11 188 1.6 22.5 0.00 0.00 0.00 100 1010.4
20260507002414 11 144 1.6 22.5 0.00 0.00 0.00 100 1010.5
20260507001915 11 166 3.2 22.5 0.00 0.00 0.00 100 1010.6
20260507001414 11 130 1.6 20.9 0.00 0.00 0.00 100 1010.5
20260507000914 11 182 1.6 20.9 0.00 0.00 0.00 100 1010.4
20260507000414 12 176 1.6 16.1 0.00 0.00 0.00 100 1010.4
20260506235914 12 199 1.6 14.5 0.00 0.00 0.00 100 1010.4
20260506234914 12 166 3.2 19.3 0.00 0.00 0.00 100 1010.4
20260506234415 12 199 3.2 19.3 0.00 0.00 0.00 100 1010.5
20260506233914 12 190 3.2 20.9 0.00 0.00 0.00 100 1010.6
20260506233415 12 96 4.8 20.9 0.00 0.00 0.00 100 1010.5
20260506232914 12 205 3.2 19.3 0.00 0.00 0.00 100 1010.5
20260506232415 12 147 4.8 22.5 0.00 0.00 0.00 100 1010.6
20260506231914 12 150 1.6 22.5 0.00 0.00 0.00 100 1010.6
20260506231414 12 125 1.6 24.1 0.00 0.00 0.00 100 1010.7
20260506230915 12 222 1.6 25.7 0.00 0.00 0.00 100 1010.7
20260506225915 12 42 4.8 24.1 0.00 0.00 0.00 100 1010.7
20260506225415 12 183 4.8 20.9 0.00 0.00 0.00 100 1010.8
20260506224414 11 100 1.6 14.5 0.00 0.00 0.00 100 1010.9
20260506223914 11 142 3.2 14.5 0.00 0.00 0.00 100 1011.0
20260506223415 11 150 1.6 22.5 0.00 0.00 0.00 100 1011.1
20260506222915 11 234 1.6 22.5 0.00 0.00 0.00 100 1011.2
20260506222414 11 114 1.6 29.0 0.00 0.00 0.00 100 1011.1
20260506221915 11 186 4.8 29.0 0.00 0.00 0.00 100 1011.1
20260506221414 11 162 3.2 24.1 0.00 0.00 0.00 100 1011.1
20260506220914 11 205 4.8 24.1 0.00 0.00 0.00 100 1011.2
20260506220414 11 155 8.0 24.1 0.00 0.00 0.00 100 1011.3
20260506215915 11 178 3.2 24.1 0.00 0.00 0.00 100 1011.3
20260506215414 11 212 1.6 27.4 0.00 0.00 0.00 100 1011.4
20260506214915 11 43 3.2 27.4 0.00 0.00 0.00 100 1011.5
20260506214416 11 187 3.2 22.5 0.00 0.00 0.00 100 1011.5
20260506213914 11 128 4.8 24.1 0.00 0.00 0.00 100 1011.5
20260506213415 11 234 6.4 24.1 0.00 0.00 0.00 100 1011.6
20260506212415 11 159 4.8 22.5 0.00 0.00 0.00 100 1011.7
20260506210914 11 326 1.6 19.3 0.00 0.00 0.00 100 1011.9
20260506210414 11 145 6.4 19.3 0.00 0.00 0.00 100 1011.9
20260506205914 11 112 1.6 14.5 0.00 0.00 0.00 100 1011.9
20260506204914 11 227 4.8 16.1 0.00 0.00 0.00 100 1011.9
20260506203915 11 230 1.6 11.3 0.00 0.00 0.00 100 1011.8
20260506203414 11 296 3.2 12.9 0.00 0.00 0.00 100 1011.9
20260506202914 11 103 1.6 19.3 0.00 0.00 0.00 100 1012.0
20260506202414 11 130 3.2 19.3 0.00 0.00 0.00 99 1012.3
20260506201915 11 152 0.0 14.5 0.00 0.00 0.00 99 1012.2
20260506201415 11 89 6.4 16.1 0.00 0.00 0.00 99 1012.4
20260506200914 11 199 4.8 19.3 0.00 0.00 0.00 98 1012.6
20260506200415 11 217 3.2 19.3 0.00 0.00 0.00 98 1012.6
20260506195916 11 118 6.4 12.9 0.00 0.00 0.00 98 1012.7
20260506193914 12 182 6.4 16.1 0.00 0.00 0.00 96 1012.6
20260506193415 12 100 1.6 20.9 0.00 0.00 0.00 96 1012.5
20260506192414 12 155 6.4 32.2 0.00 0.00 0.00 95 1012.4
20260506191914 12 207 9.7 32.2 0.00 0.00 0.00 94 1012.2
20260506191414 12 194 9.7 32.2 0.00 0.00 0.00 94 1012.1
20260506190914 12 142 6.4 20.9 0.00 0.00 0.00 94 1012.2
20260506190414 12 171 9.7 20.9 0.00 0.00 0.00 93 1012.0
20260506185414 12 145 9.7 25.7 0.00 0.00 0.00 93 1011.8
20260506184414 12 239 8.0 20.9 0.00 0.00 0.00 92 1012.0
20260506183914 12 157 9.7 25.7 0.00 0.00 0.00 92 1012.0
20260506183414 12 249 9.7 25.7 0.00 0.00 0.00 92 1012.2
20260506182914 12 164 9.7 25.7 0.00 0.00 0.00 92 1012.4
20260506182415 13 155 9.7 25.7 0.00 0.00 0.00 92 1012.4
20260506181914 13 258 4.8 20.9 0.00 0.00 0.00 92 1012.5
20260506181414 13 96 8.0 27.4 0.00 0.00 0.00 91 1012.5
20260506180914 13 168 9.7 29.0 0.00 0.00 0.00 91 1012.6
20260506180414 13 174 14.5 29.0 0.00 0.00 0.00 92 1012.6
20260506175915 13 245 12.9 27.4 0.00 0.00 0.00 92 1012.7
20260506175414 12 195 8.0 20.9 0.00 0.00 0.00 92 1012.7
20260506174915 12 296 8.0 20.9 0.00 0.00 0.00 92 1012.8
20260506174415 12 105 8.0 20.9 0.00 0.00 0.00 92 1012.9
20260506173915 12 178 11.3 25.7 0.00 0.00 0.00 92 1012.9
20260506173414 12 142 4.8 25.7 0.00 0.00 0.00 92 1012.9
20260506172915 12 195 11.3 25.7 0.00 0.00 0.00 91 1012.9
20260506172416 12 159 9.7 22.5 0.00 0.00 0.00 91 1013.2
20260506161410 13 164 8.0 19.3 0.00 0.00 0.00 90 1014.4
20260506160910 13 189 9.7 19.3 0.00 0.00 0.00 90 1014.5
20260506160411 13 197 8.0 19.3 0.00 0.00 0.00 90 1014.6
20260506155911 13 208 8.0 16.1 0.00 0.00 0.00 90 1014.5
20260506155411 13 33 4.8 16.1 0.00 0.00 0.00 90 1014.5
20260506154910 13 201 6.4 16.1 0.00 0.00 0.00 90 1014.7
20260506154410 13 172 3.2 19.3 0.00 0.00 0.00 90 1014.7
20260506153910 13 177 8.0 19.3 0.00 0.00 0.00 90 1014.8
20260506153410 13 182 11.3 19.3 0.00 0.00 0.00 89 1014.9
20260506152911 14 239 8.0 16.1 0.00 0.00 0.00 89 1014.8
20260506152412 14 197 4.8 16.1 0.00 0.00 0.00 90 1014.7
20260506151912 14 49 4.8 19.3 0.00 0.00 0.00 90 1014.7
20260506151411 14 149 9.7 19.3 0.00 0.00 0.00 89 1014.8
20260506150910 14 144 4.8 22.5 0.00 0.00 0.00 90 1014.6
20260506150411 14 149 9.7 22.5 0.00 0.00 0.00 90 1014.4
20260506145910 14 196 11.3 22.5 0.00 0.00 0.00 90 1014.2
20260506145410 14 193 8.0 25.7 0.00 0.00 0.00 90 1014.3
20260506143912 13 172 4.8 14.5 0.00 0.00 0.00 91 1014.3
20260506143411 13 195 8.0 14.5 0.00 0.00 0.00 92 1014.4
20260506142911 13 122 4.8 19.3 0.00 0.00 0.00 92 1014.5
20260506142411 13 124 9.7 19.3 0.00 0.00 0.00 92 1014.6
20260506141910 13 216 3.2 22.5 0.00 0.00 0.00 93 1014.8
20260506141410 13 145 8.0 22.5 0.00 0.00 0.00 93 1014.9
20260506140910 13 154 8.0 22.5 0.00 0.00 0.00 93 1014.9
20260506140411 13 189 6.4 12.9 0.00 0.00 0.00 94 1014.9
20260506135910 13 182 4.8 16.1 0.00 0.00 0.00 94 1014.9
20260506135411 13 131 8.0 16.1 0.00 0.00 0.00 94 1014.9
20260506134911 13 167 6.4 19.3 0.00 0.00 0.00 93 1014.8
20260506134410 13 188 9.7 20.9 0.00 0.00 0.00 93 1014.9
20260506133910 13 142 4.8 25.7 0.00 0.00 0.00 93 1014.8
20260506132910 13 181 9.7 19.3 0.00 0.00 0.00 93 1014.7
20260506132410 13 80 4.8 12.9 0.00 0.00 0.00 93 1014.6
20260506131410 13 280 3.2 14.5 0.00 0.00 0.00 94 1014.7
20260506130911 13 173 6.4 12.9 0.00 0.00 0.00 94 1014.7
20260506130410 13 91 4.8 11.3 0.00 0.00 0.00 94 1014.5
20260506125910 12 209 3.2 9.7 0.00 0.00 0.00 94 1014.6
20260506125411 12 95 1.6 16.1 0.00 0.00 0.00 94 1014.5
20260506124911 12 139 4.8 16.1 0.00 0.00 0.00 94 1014.6
20260506124412 12 209 3.2 14.5 0.00 0.00 0.00 94 1014.6
20260506123911 12 150 1.6 14.5 0.00 0.00 0.00 95 1014.6
20260506122911 12 119 3.2 12.9 0.00 0.00 0.00 95 1014.8
20260506122410 12 226 0.0 14.5 0.00 0.00 0.00 95 1014.8
20260506121911 12 172 6.4 14.5 0.00 0.00 0.00 95 1014.8
20260506121411 12 197 1.6 12.9 0.00 0.00 0.00 95 1014.7
20260506120910 12 229 6.4 12.9 0.00 0.00 0.00 95 1014.8
20260506120411 12 153 4.8 12.9 0.00 0.00 0.00 96 1014.7
20260506115910 12 152 6.4 12.9 0.00 0.00 0.00 96 1014.8